TimeCEST,TemperatureF,Dew PointF,Humidity,Sea Level PressureIn,VisibilityMPH,Wind Direction,Wind SpeedMPH,Gust SpeedMPH,PrecipitationIn,Events,Conditions,WindDirDegrees,DateUTC
2:00 AM,64,61,87,30.13,,Calm,Calm,,,,,,2012-10-08 00:00:00
5:00 AM,62.6,59.0,88,30.09,-9999.0,Calm,Calm,-,N/A,,Clear,0,2012-10-08 03:00:00
5:30 AM,60.8,59.0,94,30.09,-9999.0,Variable,1.2,-,N/A,,Clear,0,2012-10-08 03:30:00
6:00 AM,60.8,59.0,94,30.09,-9999.0,Variable,1.2,-,N/A,,Clear,0,2012-10-08 04:00:00
6:30 AM,60.8,59.0,94,30.09,-9999.0,Variable,1.2,-,N/A,,Clear,0,2012-10-08 04:30:00
7:00 AM,60.8,59.0,94,30.09,-9999.0,Variable,1.2,-,N/A,,Clear,0,2012-10-08 05:00:00
7:30 AM,60.8,59.0,94,30.09,-9999.0,Variable,1.2,-,N/A,,Clear,0,2012-10-08 05:30:00
8:00 AM,59,58,95,30.12,16,ENE,1.2,,,,,70,2012-10-08 06:00:00
8:00 AM,60.8,59.0,94,30.09,-9999.0,Variable,1.2,-,N/A,,Clear,0,2012-10-08 06:00:00
8:30 AM,60.8,59.0,94,30.09,-9999.0,Variable,1.2,-,N/A,,Clear,0,2012-10-08 06:30:00
9:00 AM,60.8,59.0,94,30.09,-9999.0,Variable,1.2,-,N/A,,Clear,0,2012-10-08 07:00:00
9:30 AM,62.6,59.0,88,30.12,-9999.0,Calm,Calm,-,N/A,,Clear,0,2012-10-08 07:30:00
10:00 AM,66.2,62.6,88,30.12,-9999.0,Calm,Calm,-,N/A,,Clear,0,2012-10-08 08:00:00
10:30 AM,69.8,62.6,78,30.12,-9999.0,Variable,1.2,-,N/A,,Clear,0,2012-10-08 08:30:00
11:00 AM,73.4,62.6,69,30.12,-9999.0,Calm,Calm,-,N/A,,Clear,0,2012-10-08 09:00:00
11:30 AM,77.0,62.6,61,30.12,-9999.0,Calm,Calm,-,N/A,,Clear,0,2012-10-08 09:30:00
12:00 PM,78.8,62.6,57,30.12,-9999.0,Calm,Calm,-,N/A,,Clear,0,2012-10-08 10:00:00
12:30 PM,82.4,60.8,48,30.12,-9999.0,Calm,Calm,-,N/A,,Clear,0,2012-10-08 10:30:00
1:00 PM,84.2,55.4,37,30.12,-9999.0,Variable,1.2,-,N/A,,Clear,0,2012-10-08 11:00:00
1:30 PM,86.0,57.2,37,30.12,-9999.0,Calm,Calm,-,N/A,,Clear,0,2012-10-08 11:30:00
2:00 PM,86,61,33,30.12,,North,3.5,,,,,0,2012-10-08 12:00:00
2:00 PM,86.0,57.2,37,30.12,-9999.0,Variable,2.3,-,N/A,,Clear,0,2012-10-08 12:00:00
2:30 PM,86.0,55.4,35,30.09,-9999.0,Variable,1.2,-,N/A,,Clear,0,2012-10-08 12:30:00
3:00 PM,87.8,53.6,31,30.09,-9999.0,Calm,Calm,-,N/A,,Clear,0,2012-10-08 13:00:00
3:30 PM,87.8,53.6,31,30.06,-9999.0,Variable,1.2,-,N/A,,Clear,0,2012-10-08 13:30:00
4:00 PM,87.8,53.6,31,30.06,-9999.0,Variable,1.2,-,N/A,,Clear,0,2012-10-08 14:00:00
4:30 PM,89.6,53.6,29,30.06,-9999.0,Calm,Calm,-,N/A,,Clear,0,2012-10-08 14:30:00
5:00 PM,89.6,51.8,27,30.06,-9999.0,Variable,1.2,-,N/A,,Clear,0,2012-10-08 15:00:00
5:30 PM,89.6,51.8,27,30.06,-9999.0,Variable,1.2,-,N/A,,Clear,0,2012-10-08 15:30:00
6:00 PM,87.8,57.2,35,30.04,-9999.0,West,4.6,-,N/A,,Clear,270,2012-10-08 16:00:00
6:30 PM,87.8,55.4,33,30.04,-9999.0,West,5.8,-,N/A,,Clear,270,2012-10-08 16:30:00
7:00 PM,86.0,57.2,37,30.04,-9999.0,West,6.9,-,N/A,,Clear,280,2012-10-08 17:00:00
7:30 PM,82.4,57.2,42,30.04,-9999.0,WNW,4.6,-,N/A,,Clear,300,2012-10-08 17:30:00
8:00 PM,80,61,43,30.06,22,WNW,4.6,,,,,290,2012-10-08 18:00:00
8:00 PM,80.6,59.0,48,30.04,-9999.0,WNW,4.6,-,N/A,,Clear,300,2012-10-08 18:00:00
8:30 PM,78.8,59.0,51,30.06,-9999.0,WNW,3.5,-,N/A,,Clear,290,2012-10-08 18:30:00
9:00 PM,77.0,59.0,54,30.06,-9999.0,Calm,Calm,-,N/A,,Clear,0,2012-10-08 19:00:00
9:30 PM,73.4,60.8,65,30.06,-9999.0,Calm,Calm,-,N/A,,Clear,0,2012-10-08 19:30:00
10:00 PM,71.6,62.6,73,30.06,-9999.0,Calm,Calm,-,N/A,,Clear,0,2012-10-08 20:00:00
10:30 PM,71.6,62.6,73,30.06,-9999.0,Variable,2.3,-,N/A,,Clear,0,2012-10-08 20:30:00
11:00 PM,69.8,62.6,78,30.06,-9999.0,Variable,2.3,-,N/A,,Clear,0,2012-10-08 21:00:00